Time,TemperatureF,DewpointF,PressureIn,WindDirection,WindDirectionDegrees,WindSpeedMPH,WindSpeedGustMPH,Humidity,HourlyPrecipIn,Conditions,Clouds,dailyrainin,SoftwareType,DateUTC
2013-04-01 00:35:00,45.6,44.8,29.67,ESE,123,3.0,15.0,97,0.00,RA,,0.24,WeatherDisplay:10.37,2013-04-01 04:35:00,
2013-04-01 00:40:00,45.7,44.9,29.66,SE,125,3.0,12.0,97,0.00,RA,,0.25,WeatherDisplay:10.37,2013-04-01 04:40:00,
2013-04-01 00:45:00,45.7,44.9,29.66,SE,146,3.0,12.0,97,0.00,RA,,0.25,WeatherDisplay:10.37,2013-04-01 04:45:00,
2013-04-01 00:50:00,45.8,45.0,29.65,SSE,166,2.0,8.0,97,0.00,,,0.25,WeatherDisplay:10.37,2013-04-01 04:50:00,
2013-04-01 00:55:00,45.8,45.0,29.64,SE,134,5.0,10.0,97,0.00,RA,,0.26,WeatherDisplay:10.37,2013-04-01 04:55:00,
2013-04-01 01:00:00,45.8,45.0,29.64,SE,126,5.0,13.0,97,0.00,RA,,0.26,WeatherDisplay:10.37,2013-04-01 05:00:00,
2013-04-01 01:05:00,45.9,45.1,29.63,SE,124,3.0,14.0,97,0.00,,,0.26,WeatherDisplay:10.37,2013-04-01 05:05:00,
2013-04-01 01:10:00,45.9,45.1,29.62,SE,126,5.0,12.0,97,0.00,RA,,0.27,WeatherDisplay:10.37,2013-04-01 05:10:00,
2013-04-01 01:15:00,45.9,45.1,29.62,SE,135,3.0,12.0,97,0.00,RA,,0.27,WeatherDisplay:10.37,2013-04-01 05:15:00,
2013-04-01 01:20:00,46.0,45.2,29.62,SE,138,5.0,13.0,97,0.01,RA,,0.28,WeatherDisplay:10.37,2013-04-01 05:20:00,
2013-04-01 01:25:00,46.0,45.2,29.61,South,173,5.0,13.0,97,0.00,RA,,0.28,WeatherDisplay:10.37,2013-04-01 05:25:00,
2013-04-01 01:30:00,45.9,45.1,29.61,South,180,3.0,10.0,97,0.00,,,0.28,WeatherDisplay:10.37,2013-04-01 05:30:00,
2013-04-01 01:35:00,45.9,45.1,29.61,SSE,156,3.0,9.0,97,0.00,RA,,0.29,WeatherDisplay:10.37,2013-04-01 05:35:00,
2013-04-01 01:40:00,45.8,45.0,29.60,ESE,109,6.9,6.9,97,0.04,RA,,0.29,WeatherDisplay:10.37,2013-04-01 05:40:00,
2013-04-01 01:45:00,45.8,45.0,29.59,SE,125,5.8,5.8,97,0.04,,,0.29,WeatherDisplay:10.37,2013-04-01 05:45:00,
2013-04-01 01:50:00,45.8,45.3,29.58,ENE,66,5.8,5.8,98,0.04,,,0.29,WeatherDisplay:10.37,2013-04-01 05:50:00,
2013-04-01 01:55:00,45.7,45.2,29.58,SE,130,5.8,5.8,98,0.03,,,0.29,WeatherDisplay:10.37,2013-04-01 05:55:00,
2013-04-01 02:01:00,45.8,45.3,29.58,SE,131,11.5,11.5,98,0.03,,,0.29,WeatherDisplay:10.37,2013-04-01 06:01:00,
2013-04-01 02:06:00,45.8,45.3,29.57,SSE,153,9.2,9.2,98,0.03,,,0.29,WeatherDisplay:10.37,2013-04-01 06:06:00,
2013-04-01 02:11:00,45.9,45.4,29.57,SSE,155,5.0,5.0,98,0.02,,,0.29,WeatherDisplay:10.37,2013-04-01 06:11:00,
2013-04-01 02:16:00,46.0,45.5,29.56,SE,142,4.0,4.0,98,0.02,,,0.29,WeatherDisplay:10.37,2013-04-01 06:16:00,
2013-04-01 02:21:00,46.1,45.6,29.55,SW,222,10.0,10.0,98,0.02,RA,,0.30,WeatherDisplay:10.37,2013-04-01 06:21:00,
2013-04-01 02:26:00,46.3,45.8,29.54,SSE,157,5.8,5.8,98,0.02,RA,,0.30,WeatherDisplay:10.37,2013-04-01 06:26:00,
2013-04-01 02:31:00,46.4,45.9,29.54,SSW,201,6.9,6.9,98,0.02,,,0.30,WeatherDisplay:10.37,2013-04-01 06:31:00,
2013-04-01 02:36:00,46.6,46.1,29.55,SSW,207,3.0,3.0,98,0.01,,,0.30,WeatherDisplay:10.37,2013-04-01 06:36:00,
2013-04-01 02:41:00,46.8,46.3,29.54,SE,130,1.1,0.0,98,0.01,,,0.30,WeatherDisplay:10.37,2013-04-01 06:41:00,
2013-04-01 02:46:00,47.0,46.5,29.55,SW,225,10.0,10.0,98,0.01,,,0.30,WeatherDisplay:10.37,2013-04-01 06:46:00,
2013-04-01 02:51:00,47.2,46.9,29.54,SSE,155,11.5,11.5,99,0.01,,,0.30,WeatherDisplay:10.37,2013-04-01 06:51:00,
2013-04-01 02:56:00,47.2,46.9,29.54,ESE,103,3.5,3.5,99,0.01,,,0.30,WeatherDisplay:10.37,2013-04-01 06:56:00,
2013-04-01 03:01:00,47.2,46.7,29.54,SW,215,10.4,10.4,98,0.01,,,0.30,WeatherDisplay:10.37,2013-04-01 07:01:00,
2013-04-01 03:06:00,47.0,46.5,29.54,West,265,5.8,5.8,98,0.01,,,0.30,WeatherDisplay:10.37,2013-04-01 07:06:00,
2013-04-01 03:11:00,46.9,46.6,29.54,West,261,11.0,11.0,99,0.01,,,0.30,WeatherDisplay:10.37,2013-04-01 07:11:00,
2013-04-01 03:16:00,46.6,46.3,29.53,SSW,206,9.2,9.2,99,0.01,,,0.30,WeatherDisplay:10.37,2013-04-01 07:16:00,
2013-04-01 03:21:00,46.4,45.9,29.53,WNW,295,13.8,13.8,98,0.00,,,0.30,WeatherDisplay:10.37,2013-04-01 07:21:00,
2013-04-01 03:26:00,46.3,45.8,29.54,SSE,164,3.5,3.5,98,0.00,,,0.30,WeatherDisplay:10.37,2013-04-01 07:26:00,
2013-04-01 03:31:00,46.2,45.9,29.54,SSW,211,3.5,3.5,99,0.00,,,0.30,WeatherDisplay:10.37,2013-04-01 07:31:00,
2013-04-01 03:36:00,46.0,45.7,29.54,WSW,252,4.6,4.6,99,0.00,,,0.30,WeatherDisplay:10.37,2013-04-01 07:36:00,
2013-04-01 03:41:00,45.9,45.4,29.54,South,191,9.2,9.2,98,0.00,,,0.30,WeatherDisplay:10.37,2013-04-01 07:41:00,
2013-04-01 03:46:00,45.8,45.5,29.54,NW,305,4.6,4.6,99,0.00,,,0.30,WeatherDisplay:10.37,2013-04-01 07:46:00,
2013-04-01 03:51:00,45.8,45.5,29.54,SSW,193,7.0,7.0,99,0.00,,,0.30,WeatherDisplay:10.37,2013-04-01 07:51:00,
2013-04-01 03:56:00,45.8,45.5,29.54,West,277,6.0,6.0,99,0.00,,,0.30,WeatherDisplay:10.37,2013-04-01 07:56:00,
2013-04-01 04:02:00,45.8,45.5,29.54,WSW,248,4.6,4.6,99,0.00,,,0.30,WeatherDisplay:10.37,2013-04-01 08:02:00,
2013-04-01 04:07:00,45.7,45.4,29.54,WSW,239,4.0,4.0,99,0.00,,,0.30,WeatherDisplay:10.37,2013-04-01 08:07:00,
2013-04-01 04:12:00,45.7,45.4,29.54,WSW,250,3.5,3.5,99,0.00,,,0.30,WeatherDisplay:10.37,2013-04-01 08:12:00,
2013-04-01 04:18:00,45.7,45.4,29.54,NW,317,0.0,0.0,99,0.00,,,0.30,WeatherDisplay:10.37,2013-04-01 08:18:00,
2013-04-01 04:23:00,45.7,45.4,29.54,West,271,2.3,2.3,99,0.00,,,0.30,WeatherDisplay:10.37,2013-04-01 08:23:00,
2013-04-01 04:28:00,45.8,45.5,29.55,NW,317,4.6,4.6,99,0.00,,,0.30,WeatherDisplay:10.37,2013-04-01 08:28:00,
2013-04-01 04:33:00,45.8,45.5,29.55,SSE,157,3.5,3.5,99,0.00,,,0.30,WeatherDisplay:10.37,2013-04-01 08:33:00,
2013-04-01 04:38:00,45.8,45.5,29.56,SSW,211,3.0,3.0,99,0.00,,,0.30,WeatherDisplay:10.37,2013-04-01 08:38:00,
2013-04-01 04:43:00,45.9,45.6,29.56,WNW,284,1.0,1.0,99,0.00,,,0.30,WeatherDisplay:10.37,2013-04-01 08:43:00,
2013-04-01 04:48:00,45.9,45.6,29.56,WSW,237,2.3,2.3,99,0.00,,,0.30,WeatherDisplay:10.37,2013-04-01 08:48:00,
2013-04-01 04:53:00,46.0,45.7,29.56,WSW,242,3.5,3.5,99,0.00,,,0.30,WeatherDisplay:10.37,2013-04-01 08:53:00,
2013-04-01 04:58:00,46.1,45.8,29.56,NW,322,3.5,3.5,99,0.00,,,0.30,WeatherDisplay:10.37,2013-04-01 08:58:00,
2013-04-01 05:03:00,46.2,45.9,29.56,West,267,3.5,3.5,99,0.00,,,0.30,WeatherDisplay:10.37,2013-04-01 09:03:00,
2013-04-01 05:08:00,46.3,46.0,29.56,West,279,0.0,0.0,99,0.00,,,0.30,WeatherDisplay:10.37,2013-04-01 09:08:00,
2013-04-01 05:13:00,46.4,46.1,29.56,NW,319,3.5,3.5,99,0.00,,,0.30,WeatherDisplay:10.37,2013-04-01 09:13:00,
2013-04-01 05:18:00,46.5,46.2,29.57,WSW,244,3.5,3.5,99,0.00,,,0.30,WeatherDisplay:10.37,2013-04-01 09:18:00,
2013-04-01 05:23:00,46.6,46.3,29.57,NW,306,0.0,0.0,99,0.00,,,0.30,WeatherDisplay:10.37,2013-04-01 09:23:00,
2013-04-01 05:28:00,46.6,46.3,29.58,WNW,294,6.9,6.9,99,0.00,,,0.30,WeatherDisplay:10.37,2013-04-01 09:28:00,
2013-04-01 05:33:00,46.5,46.2,29.58,NW,309,6.9,6.9,99,0.00,,,0.30,WeatherDisplay:10.37,2013-04-01 09:33:00,
2013-04-01 05:38:00,46.5,46.2,29.58,WNW,290,6.9,6.9,99,0.00,,,0.30,WeatherDisplay:10.37,2013-04-01 09:38:00,
2013-04-01 05:43:00,46.4,46.1,29.58,West,273,2.3,0.0,99,0.00,,,0.30,WeatherDisplay:10.37,2013-04-01 09:43:00,
2013-04-01 05:48:00,46.3,46.0,29.58,WSW,238,10.0,10.0,99,0.00,,,0.30,WeatherDisplay:10.37,2013-04-01 09:48:00,
2013-04-01 05:53:00,46.2,45.9,29.58,NNE,13,5.8,5.8,99,0.00,,,0.30,WeatherDisplay:10.37,2013-04-01 09:53:00,
2013-04-01 05:58:00,46.0,45.7,29.58,NW,312,6.9,6.9,99,0.00,,,0.30,WeatherDisplay:10.37,2013-04-01 09:58:00,
2013-04-01 06:03:00,46.0,45.7,29.58,West,265,4.6,4.6,99,0.00,,,0.30,WeatherDisplay:10.37,2013-04-01 10:03:00,
2013-04-01 06:08:00,45.8,45.5,29.58,WNW,293,4.6,4.6,99,0.00,,,0.30,WeatherDisplay:10.37,2013-04-01 10:08:00,
2013-04-01 06:13:00,45.5,45.2,29.58,SW,227,3.5,3.5,99,0.00,OVC,,0.30,WeatherDisplay:10.37,2013-04-01 10:13:00,
2013-04-01 06:18:00,45.2,44.7,29.58,NW,321,3.5,3.5,98,0.00,OVC,,0.30,WeatherDisplay:10.37,2013-04-01 10:18:00,
2013-04-01 06:23:00,45.0,44.5,29.59,WNW,292,11.5,11.5,98,0.00,OVC,,0.30,WeatherDisplay:10.37,2013-04-01 10:23:00,
2013-04-01 06:29:00,44.8,44.3,29.59,WNW,294,2.3,2.3,98,0.00,OVC,,0.30,WeatherDisplay:10.37,2013-04-01 10:29:00,
2013-04-01 06:34:00,44.5,44.0,29.59,NNE,13,3.5,3.5,98,0.00,OVC,,0.30,WeatherDisplay:10.37,2013-04-01 10:34:00,
2013-04-01 06:39:00,44.3,43.5,29.59,NW,312,2.3,2.4,97,0.00,OVC,,0.30,WeatherDisplay:10.37,2013-04-01 10:39:00,
2013-04-01 06:44:00,44.1,43.3,29.60,WNW,282,11.5,11.5,97,0.00,OVC,,0.30,WeatherDisplay:10.37,2013-04-01 10:44:00,
2013-04-01 06:49:00,44.1,43.3,29.60,North,355,4.6,4.6,97,0.00,OVC,,0.30,WeatherDisplay:10.37,2013-04-01 10:49:00,
2013-04-01 06:54:00,44.1,43.3,29.61,NNW,344,3.5,3.5,97,0.00,OVC,,0.30,WeatherDisplay:10.37,2013-04-01 10:54:00,
2013-04-01 06:59:00,44.2,43.4,29.61,North,360,9.2,9.2,97,0.00,OVC,,0.30,WeatherDisplay:10.37,2013-04-01 10:59:00,
2013-04-01 07:04:00,44.2,43.4,29.61,North,9,3.5,3.5,97,0.00,OVC,,0.30,WeatherDisplay:10.37,2013-04-01 11:04:00,
2013-04-01 07:09:00,44.2,43.1,29.61,NW,313,0.0,0.0,96,0.00,OVC,,0.30,WeatherDisplay:10.37,2013-04-01 11:09:00,
2013-04-01 07:14:00,44.4,43.3,29.61,West,271,3.5,3.5,96,0.00,OVC,,0.30,WeatherDisplay:10.37,2013-04-01 11:14:00,
2013-04-01 07:19:00,44.5,43.4,29.61,WNW,292,2.3,2.3,96,0.00,OVC,,0.30,WeatherDisplay:10.37,2013-04-01 11:19:00,
2013-04-01 07:21:00,33.8,15.7,29.94,NE,45,5.0,5.0,47,0.00,CLR,,0.01,WeatherDisplay:10.37,2013-04-01 11:21:00,
2013-04-01 07:23:00,33.7,15.6,29.94,NW,323,1.0,6.0,47,0.00,CLR,,0.01,WeatherDisplay:10.37,2013-04-01 11:23:00,
2013-04-01 07:24:00,44.6,43.5,29.61,NW,304,6.0,6.0,96,0.00,OVC,,0.30,WeatherDisplay:10.37,2013-04-01 11:24:00,
2013-04-01 07:25:00,33.7,15.6,29.95,NNE,29,3.5,0.0,47,0.00,CLR,,0.01,WeatherDisplay:10.37,2013-04-01 11:25:00,
2013-04-01 07:26:00,33.7,15.6,29.95,NNW,336,1.1,1.1,47,0.00,CLR,,0.01,WeatherDisplay:10.37,2013-04-01 11:26:00,
2013-04-01 07:27:00,33.7,15.6,29.95,WNW,290,2.3,2.3,47,0.00,CLR,,0.01,WeatherDisplay:10.37,2013-04-01 11:27:00,
2013-04-01 07:28:00,33.7,15.6,29.95,North,353,1.0,9.0,47,0.00,CLR,,0.01,WeatherDisplay:10.37,2013-04-01 11:28:00,
2013-04-01 07:29:00,44.5,43.4,29.61,WNW,294,9.2,9.2,96,0.00,OVC,,0.30,WeatherDisplay:10.37,2013-04-01 11:29:00,
2013-04-01 07:33:00,33.6,15.5,29.95,WNW,296,5.8,5.8,47,0.00,CLR,,0.01,WeatherDisplay:10.37,2013-04-01 11:33:00,
2013-04-01 07:34:00,44.5,43.4,29.62,NNW,344,5.8,5.8,96,0.00,OVC,,0.30,WeatherDisplay:10.37,2013-04-01 11:34:00,
2013-04-01 07:35:00,33.6,15.5,29.95,West,275,7.0,7.0,47,0.00,CLR,,0.01,WeatherDisplay:10.37,2013-04-01 11:35:00,
2013-04-01 07:37:00,33.6,15.5,29.95,NE,40,6.9,6.9,47,0.00,CLR,,0.01,WeatherDisplay:10.37,2013-04-01 11:37:00,
2013-04-01 07:38:00,33.7,15.6,29.95,ENE,76,2.0,2.0,47,0.00,CLR,,0.01,WeatherDisplay:10.37,2013-04-01 11:38:00,
2013-04-01 07:39:00,44.6,43.3,29.62,West,276,11.5,11.5,95,0.00,OVC,,0.30,WeatherDisplay:10.37,2013-04-01 11:39:00,
2013-04-01 07:40:00,33.7,15.6,29.95,NW,306,17.3,17.3,47,0.00,CLR,,0.01,WeatherDisplay:10.37,2013-04-01 11:40:00,
2013-04-01 07:41:00,33.7,15.6,29.95,NE,53,6.9,6.9,47,0.00,CLR,,0.01,WeatherDisplay:10.37,2013-04-01 11:41:00,
2013-04-01 07:44:00,44.5,42.9,29.62,NW,319,11.5,11.5,94,0.00,OVC,,0.30,WeatherDisplay:10.37,2013-04-01 11:44:00,
2013-04-01 07:45:00,33.8,15.2,29.95,NNW,338,16.1,16.1,46,0.00,CLR,,0.01,WeatherDisplay:10.37,2013-04-01 11:45:00,
2013-04-01 07:46:00,33.9,15.3,29.95,NNW,338,3.5,3.5,46,0.00,CLR,,0.01,WeatherDisplay:10.37,2013-04-01 11:46:00,
2013-04-01 07:50:00,44.6,43.0,29.63,NW,325,1.1,0.0,94,0.00,OVC,,0.30,WeatherDisplay:10.37,2013-04-01 11:50:00,
2013-04-01 07:55:00,44.7,43.1,29.63,NE,48,5.8,5.8,94,0.00,OVC,,0.30,WeatherDisplay:10.37,2013-04-01 11:55:00,
2013-04-01 08:00:00,44.7,43.1,29.63,WNW,302,8.1,8.1,94,0.00,OVC,,0.30,WeatherDisplay:10.37,2013-04-01 12:00:00,
2013-04-01 08:05:00,44.9,43.3,29.63,NW,318,4.6,4.6,94,0.00,OVC,,0.30,WeatherDisplay:10.37,2013-04-01 12:05:00,
2013-04-01 08:10:00,45.0,43.1,29.63,NW,324,4.6,4.6,93,0.00,OVC,,0.30,WeatherDisplay:10.37,2013-04-01 12:10:00,
2013-04-01 08:15:00,45.3,43.7,29.63,WNW,300,4.0,4.0,94,0.00,OVC,,0.30,WeatherDisplay:10.37,2013-04-01 12:15:00,
2013-04-01 08:20:00,45.7,43.8,29.63,WNW,287,6.0,6.0,93,0.00,OVC,,0.30,WeatherDisplay:10.37,2013-04-01 12:20:00,
2013-04-01 08:25:00,46.1,43.9,29.64,WNW,292,3.5,3.5,92,0.00,OVC,,0.30,WeatherDisplay:10.37,2013-04-01 12:25:00,
2013-04-01 08:30:00,46.6,44.1,29.63,NNW,342,0.0,0.0,91,0.00,OVC,,0.30,WeatherDisplay:10.37,2013-04-01 12:30:00,
2013-04-01 08:35:00,46.9,44.4,29.63,SW,231,2.3,2.3,91,0.00,OVC,,0.30,WeatherDisplay:10.37,2013-04-01 12:35:00,
2013-04-01 08:40:00,47.2,44.4,29.63,NW,321,7.0,7.0,90,0.00,OVC,,0.30,WeatherDisplay:10.37,2013-04-01 12:40:00,
2013-04-01 08:45:00,47.4,44.0,29.63,WSW,242,4.0,4.0,88,0.00,OVC,,0.30,WeatherDisplay:10.37,2013-04-01 12:45:00,
2013-04-01 08:50:00,47.6,43.9,29.64,WSW,255,5.8,5.8,87,0.00,OVC,,0.30,WeatherDisplay:10.37,2013-04-01 12:50:00,
2013-04-01 08:55:00,48.0,44.6,29.63,NNW,342,9.0,9.0,88,0.00,OVC,,0.30,WeatherDisplay:10.37,2013-04-01 12:55:00,
2013-04-01 09:00:00,48.5,44.8,29.63,WNW,290,3.5,3.5,87,0.00,OVC,,0.30,WeatherDisplay:10.37,2013-04-01 13:00:00,
2013-04-01 09:05:00,49.2,45.2,29.63,WNW,290,6.0,6.0,86,0.00,OVC,,0.30,WeatherDisplay:10.37,2013-04-01 13:05:00,
2013-04-01 09:10:00,49.6,45.0,29.63,West,262,6.0,6.0,84,0.00,OVC,,0.30,WeatherDisplay:10.37,2013-04-01 13:10:00,
2013-04-01 09:15:00,49.9,44.9,29.63,NNW,331,4.6,4.6,83,0.00,OVC,,0.30,WeatherDisplay:10.37,2013-04-01 13:15:00,
2013-04-01 09:20:00,50.0,44.1,29.64,North,360,11.5,11.5,80,0.00,OVC,,0.30,WeatherDisplay:10.37,2013-04-01 13:20:00,
2013-04-01 09:25:00,50.3,44.7,29.63,West,273,4.6,4.6,81,0.00,OVC,,0.30,WeatherDisplay:10.37,2013-04-01 13:25:00,
2013-04-01 09:30:00,50.9,44.9,29.63,NNW,340,5.8,5.8,80,0.00,OVC,,0.30,WeatherDisplay:10.37,2013-04-01 13:30:00,
2013-04-01 09:35:00,51.5,44.9,29.63,SSE,148,4.6,4.6,78,0.00,OVC,,0.30,WeatherDisplay:10.37,2013-04-01 13:35:00,
2013-04-01 09:40:00,51.7,44.7,29.62,NNW,342,10.4,10.4,77,0.00,OVC,,0.30,WeatherDisplay:10.37,2013-04-01 13:40:00,
2013-04-01 09:45:00,52.1,44.8,29.62,WNW,288,9.2,9.2,76,0.00,OVC,,0.30,WeatherDisplay:10.37,2013-04-01 13:45:00,
2013-04-01 09:50:00,52.4,45.1,29.62,SW,222,4.6,4.6,76,0.00,OVC,,0.30,WeatherDisplay:10.37,2013-04-01 13:50:00,
2013-04-01 09:55:00,52.9,45.5,29.63,WNW,300,5.8,5.8,76,0.00,OVC,,0.30,WeatherDisplay:10.37,2013-04-01 13:55:00,
2013-04-01 10:00:00,53.6,45.5,29.62,SSW,206,5.0,5.0,74,0.00,OVC,,0.30,WeatherDisplay:10.37,2013-04-01 14:00:00,
2013-04-01 10:05:00,54.0,45.5,29.62,NNE,32,5.8,5.8,73,0.00,OVC,,0.30,WeatherDisplay:10.37,2013-04-01 14:05:00,
2013-04-01 10:10:00,54.3,46.5,29.62,West,267,6.9,6.9,75,0.00,OVC,,0.30,WeatherDisplay:10.37,2013-04-01 14:10:00,
2013-04-01 10:15:00,54.4,45.6,29.62,WSW,253,0.0,0.0,72,0.00,,,0.30,WeatherDisplay:10.37,2013-04-01 14:15:00,
2013-04-01 10:20:00,54.8,45.6,29.62,North,10,3.5,3.5,71,0.00,,,0.30,WeatherDisplay:10.37,2013-04-01 14:20:00,
2013-04-01 10:25:00,55.1,46.6,29.62,WNW,290,2.0,2.0,73,0.00,,,0.30,WeatherDisplay:10.37,2013-04-01 14:25:00,
2013-04-01 10:27:00,31.4,17.1,29.96,WNW,285,11.5,11.5,55,0.00,CLR,,0.01,WeatherDisplay:10.37,2013-04-01 14:27:00,
2013-04-01 10:28:00,31.4,17.1,29.96,WNW,289,5.0,13.0,55,0.00,CLR,,0.01,WeatherDisplay:10.37,2013-04-01 14:28:00,
2013-04-01 10:29:00,31.4,17.1,29.96,NW,325,2.3,2.3,55,0.00,CLR,,0.01,WeatherDisplay:10.37,2013-04-01 14:29:00,
2013-04-01 10:30:00,55.3,46.1,29.62,WSW,239,4.0,4.0,71,0.00,,,0.30,WeatherDisplay:10.37,2013-04-01 14:30:00,
2013-04-01 10:31:00,31.5,17.6,29.96,NNW,331,10.4,10.4,56,0.00,CLR,,0.01,WeatherDisplay:10.37,2013-04-01 14:31:00,
2013-04-01 10:32:00,31.5,17.6,29.96,NW,325,11.5,11.5,56,0.00,CLR,,0.01,WeatherDisplay:10.37,2013-04-01 14:32:00,
2013-04-01 10:33:00,31.5,17.6,29.96,WNW,295,1.0,12.0,56,0.00,CLR,,0.01,WeatherDisplay:10.37,2013-04-01 14:33:00,
2013-04-01 10:34:00,31.5,16.7,29.96,NNE,22,4.6,4.6,54,0.00,CLR,,0.01,WeatherDisplay:10.37,2013-04-01 14:34:00,
2013-04-01 10:35:00,55.6,46.3,29.63,SSW,213,3.5,3.5,71,0.00,,,0.30,WeatherDisplay:10.37,2013-04-01 14:35:00,
2013-04-01 10:36:00,31.6,16.8,29.96,NNW,345,11.0,11.0,54,0.00,CLR,,0.01,WeatherDisplay:10.37,2013-04-01 14:36:00,
2013-04-01 10:37:00,31.8,17.5,29.96,WNW,283,11.5,11.5,55,0.00,CLR,,0.01,WeatherDisplay:10.37,2013-04-01 14:37:00,
2013-04-01 10:38:00,31.8,17.4,29.96,WNW,303,2.0,12.0,55,0.00,CLR,,0.01,WeatherDisplay:10.37,2013-04-01 14:38:00,
2013-04-01 10:39:00,31.8,17.0,29.96,NE,36,4.6,4.6,54,0.00,CLR,,0.01,WeatherDisplay:10.37,2013-04-01 14:39:00,
2013-04-01 10:40:00,55.3,45.7,29.63,WSW,256,3.5,0.0,70,0.00,,,0.30,WeatherDisplay:10.37,2013-04-01 14:40:00,
2013-04-01 10:41:00,31.9,16.7,29.96,WNW,302,10.4,10.4,53,0.00,CLR,,0.01,WeatherDisplay:10.37,2013-04-01 14:41:00,
2013-04-01 10:42:00,32.0,17.2,29.96,WNW,298,11.5,11.5,54,0.00,CLR,,0.01,WeatherDisplay:10.37,2013-04-01 14:42:00,
2013-04-01 10:43:00,32.0,17.2,29.96,NW,312,3.0,12.0,54,0.00,CLR,,0.01,WeatherDisplay:10.37,2013-04-01 14:43:00,
2013-04-01 10:44:00,32.1,17.3,29.96,WNW,290,6.9,6.9,54,0.00,CLR,,0.01,WeatherDisplay:10.37,2013-04-01 14:44:00,
2013-04-01 10:45:00,55.7,45.3,29.63,NW,307,9.2,9.2,68,0.00,,,0.30,WeatherDisplay:10.37,2013-04-01 14:45:00,
2013-04-01 10:46:00,32.2,17.4,29.96,NW,304,3.5,3.5,54,0.00,CLR,,0.01,WeatherDisplay:10.37,2013-04-01 14:46:00,
2013-04-01 10:47:00,32.2,17.4,29.96,WNW,302,0.0,0.0,54,0.00,CLR,,0.01,WeatherDisplay:10.37,2013-04-01 14:47:00,
2013-04-01 10:48:00,32.2,17.4,29.96,NW,311,1.0,7.0,54,0.00,CLR,,0.01,WeatherDisplay:10.37,2013-04-01 14:48:00,
2013-04-01 10:49:00,32.2,17.0,29.95,West,268,5.0,5.0,53,0.00,CLR,,0.01,WeatherDisplay:10.37,2013-04-01 14:49:00,
2013-04-01 10:50:00,55.8,45.8,29.63,WSW,251,11.5,11.5,69,0.00,,,0.30,WeatherDisplay:10.37,2013-04-01 14:50:00,
2013-04-01 10:51:00,32.2,17.0,29.96,WNW,300,5.8,5.8,53,0.00,CLR,,0.01,WeatherDisplay:10.37,2013-04-01 14:51:00,
2013-04-01 10:52:00,32.2,17.0,29.96,NW,304,1.1,1.1,53,0.00,CLR,,0.01,WeatherDisplay:10.37,2013-04-01 14:52:00,
2013-04-01 10:53:00,32.2,17.0,29.96,NW,306,0.0,6.0,53,0.00,CLR,,0.01,WeatherDisplay:10.37,2013-04-01 14:53:00,
2013-04-01 10:54:00,32.1,17.3,29.96,NW,304,2.0,2.0,54,0.00,CLR,,0.01,WeatherDisplay:10.37,2013-04-01 14:54:00,
2013-04-01 10:55:00,55.8,45.4,29.63,WNW,284,3.0,8.0,68,0.00,,,0.30,WeatherDisplay:10.37,2013-04-01 14:55:00,
2013-04-01 10:56:00,32.1,17.3,29.96,NW,306,2.3,2.3,54,0.00,CLR,,0.01,WeatherDisplay:10.37,2013-04-01 14:56:00,
2013-04-01 10:57:00,32.0,17.2,29.96,WNW,291,4.6,4.6,54,0.00,CLR,,0.01,WeatherDisplay:10.37,2013-04-01 14:57:00,
2013-04-01 10:58:00,32.0,17.2,29.96,WNW,296,2.0,5.0,54,0.00,CLR,,0.01,WeatherDisplay:10.37,2013-04-01 14:58:00,
2013-04-01 10:59:00,31.9,17.5,29.96,West,279,4.0,4.0,55,0.00,CLR,,0.01,WeatherDisplay:10.37,2013-04-01 14:59:00,
2013-04-01 11:00:00,55.9,45.5,29.63,SW,227,3.0,7.0,68,0.00,,,0.30,WeatherDisplay:10.37,2013-04-01 15:00:00,
2013-04-01 11:01:00,31.8,17.0,29.95,West,279,0.0,0.0,54,0.00,CLR,,0.01,WeatherDisplay:10.37,2013-04-01 15:01:00,
2013-04-01 11:03:00,31.7,17.4,29.96,WNW,285,3.5,3.5,55,0.00,CLR,,0.01,WeatherDisplay:10.37,2013-04-01 15:03:00,
2013-04-01 11:04:00,31.6,17.3,29.96,WNW,295,2.3,0.0,55,0.00,CLR,,0.01,WeatherDisplay:10.37,2013-04-01 15:04:00,
2013-04-01 11:05:00,55.7,45.7,29.63,WSW,258,3.0,13.0,69,0.00,,,0.30,WeatherDisplay:10.37,2013-04-01 15:05:00,
2013-04-01 11:08:00,31.5,17.1,29.96,West,280,0.0,2.0,55,0.00,CLR,,0.01,WeatherDisplay:10.37,2013-04-01 15:08:00,
2013-04-01 11:10:00,55.9,45.5,29.63,West,272,1.0,9.0,68,0.00,,,0.30,WeatherDisplay:10.37,2013-04-01 15:10:00,
2013-04-01 11:15:00,56.4,45.2,29.62,West,278,6.0,6.0,66,0.00,,,0.30,WeatherDisplay:10.37,2013-04-01 15:15:00,
2013-04-01 11:18:00,31.1,17.2,29.96,SW,214,0.0,0.0,56,0.00,CLR,,0.01,WeatherDisplay:10.37,2013-04-01 15:18:00,
2013-04-01 11:19:00,31.1,17.2,29.96,WSW,258,4.6,4.6,56,0.00,CLR,,0.01,WeatherDisplay:10.37,2013-04-01 15:19:00,
2013-04-01 11:20:00,56.9,46.1,29.62,SSW,198,2.3,2.3,67,0.00,,,0.30,WeatherDisplay:10.37,2013-04-01 15:20:00,
2013-04-01 11:25:00,57.6,46.7,29.62,SSE,161,2.3,2.3,67,0.00,,,0.30,WeatherDisplay:10.37,2013-04-01 15:25:00,
2013-04-01 11:30:00,57.7,46.0,29.62,South,169,11.5,11.5,65,0.00,,,0.30,WeatherDisplay:10.37,2013-04-01 15:30:00,
2013-04-01 11:35:00,56.8,45.6,29.62,SSW,201,3.0,12.0,66,0.00,,,0.30,WeatherDisplay:10.37,2013-04-01 15:35:00,
2013-04-01 11:40:00,56.9,46.1,29.62,West,270,9.2,9.2,67,0.00,,,0.30,WeatherDisplay:10.37,2013-04-01 15:40:00,
2013-04-01 11:45:00,56.9,45.7,29.62,South,187,10.4,10.4,66,0.00,,,0.30,WeatherDisplay:10.37,2013-04-01 15:45:00,
2013-04-01 11:50:00,56.8,46.0,29.62,SSE,148,12.7,12.7,67,0.00,,,0.30,WeatherDisplay:10.37,2013-04-01 15:50:00,
2013-04-01 11:55:00,56.3,45.9,29.62,ESE,116,2.3,2.3,68,0.00,,,0.30,WeatherDisplay:10.37,2013-04-01 15:55:00,
2013-04-01 12:00:00,56.6,45.8,29.62,SSW,210,9.2,9.2,67,0.00,,,0.30,WeatherDisplay:10.37,2013-04-01 16:00:00,
2013-04-01 12:05:00,56.8,45.2,29.62,SW,234,16.1,16.1,65,0.00,,,0.30,WeatherDisplay:10.37,2013-04-01 16:05:00,
2013-04-01 12:10:00,56.3,45.1,29.62,West,267,4.6,4.6,66,0.00,,,0.30,WeatherDisplay:10.37,2013-04-01 16:10:00,
2013-04-01 12:15:00,56.8,45.6,29.61,WSW,257,11.5,11.5,66,0.00,,,0.30,WeatherDisplay:10.37,2013-04-01 16:15:00,
2013-04-01 12:20:00,56.8,46.3,29.61,WSW,240,11.5,11.5,68,0.00,,,0.30,WeatherDisplay:10.37,2013-04-01 16:20:00,
2013-04-01 12:25:00,56.8,46.7,29.61,SE,138,8.1,8.1,69,0.00,,,0.30,WeatherDisplay:10.37,2013-04-01 16:25:00,
2013-04-01 12:30:00,57.5,47.4,29.61,West,269,6.9,6.9,69,0.00,,,0.30,WeatherDisplay:10.37,2013-04-01 16:30:00,
2013-04-01 12:35:00,57.2,46.7,29.61,North,355,12.7,12.7,68,0.00,,,0.30,WeatherDisplay:10.37,2013-04-01 16:35:00,
2013-04-01 12:40:00,56.8,46.7,29.60,South,187,13.0,13.0,69,0.00,,,0.30,WeatherDisplay:10.37,2013-04-01 16:40:00,
2013-04-01 12:45:00,56.4,46.7,29.60,SSW,200,11.5,11.5,70,0.00,,,0.30,WeatherDisplay:10.37,2013-04-01 16:45:00,
2013-04-01 12:50:00,56.4,46.3,29.60,South,184,6.0,14.0,69,0.00,,,0.30,WeatherDisplay:10.37,2013-04-01 16:50:00,
2013-04-01 12:55:00,55.9,45.9,29.60,SE,137,10.4,10.4,69,0.00,,,0.30,WeatherDisplay:10.37,2013-04-01 16:55:00,
2013-04-01 13:00:00,55.5,46.6,29.60,South,184,6.0,6.0,72,0.00,,,0.30,WeatherDisplay:10.37,2013-04-01 17:00:00,
2013-04-01 13:05:00,55.2,46.3,29.60,SSE,156,12.7,12.7,72,0.00,,,0.30,WeatherDisplay:10.37,2013-04-01 17:05:00,
2013-04-01 13:10:00,55.3,46.8,29.59,SSW,212,16.1,16.1,73,0.00,,,0.30,WeatherDisplay:10.37,2013-04-01 17:10:00,
2013-04-01 13:15:00,55.8,47.3,29.59,SSW,193,5.0,20.0,73,0.00,,,0.30,WeatherDisplay:10.37,2013-04-01 17:15:00,
2013-04-01 13:20:00,56.3,47.8,29.59,North,5,8.1,8.1,73,0.00,,,0.30,WeatherDisplay:10.37,2013-04-01 17:20:00,
2013-04-01 13:25:00,57.0,47.7,29.59,SSW,194,11.5,11.5,71,0.00,,,0.30,WeatherDisplay:10.37,2013-04-01 17:25:00,
2013-04-01 13:30:00,57.1,47.0,29.59,SSE,156,19.6,19.6,69,0.00,,,0.30,WeatherDisplay:10.37,2013-04-01 17:30:00,
2013-04-01 13:35:00,57.0,46.9,29.58,South,182,17.3,17.3,69,0.00,RA,,0.00,WeatherDisplay:10.37,2013-04-01 17:35:00,
2013-04-01 13:40:00,57.2,47.5,29.58,SSW,207,8.0,8.0,70,0.00,RA,,0.00,WeatherDisplay:10.37,2013-04-01 17:40:00,
2013-04-01 13:46:00,56.9,47.2,29.57,SSW,200,10.4,10.4,70,0.00,,,0.00,WeatherDisplay:10.37,2013-04-01 17:46:00,
2013-04-01 13:51:00,57.5,47.4,29.57,South,180,10.0,10.0,69,0.00,,,0.00,WeatherDisplay:10.37,2013-04-01 17:51:00,
2013-04-01 13:56:00,58.1,47.6,29.57,South,175,10.4,10.4,68,0.00,,,0.00,WeatherDisplay:10.37,2013-04-01 17:56:00,
2013-04-01 14:02:00,58.3,47.4,29.56,South,183,11.5,11.5,67,0.00,,,0.00,WeatherDisplay:10.37,2013-04-01 18:02:00,
2013-04-01 14:07:00,58.7,48.2,29.56,SSW,202,10.0,10.0,68,0.00,,,0.00,WeatherDisplay:10.37,2013-04-01 18:07:00,
2013-04-01 14:12:00,58.9,47.6,29.56,NNW,330,5.8,5.8,66,0.00,,,0.00,WeatherDisplay:10.37,2013-04-01 18:12:00,
2013-04-01 14:17:00,58.5,47.2,29.57,SW,226,12.7,12.7,66,0.00,,,0.00,WeatherDisplay:10.37,2013-04-01 18:17:00,
2013-04-01 14:22:00,57.8,46.1,29.56,SE,145,19.6,19.6,65,0.00,,,0.00,WeatherDisplay:10.37,2013-04-01 18:22:00,
2013-04-01 14:27:00,57.2,46.3,29.56,SSW,194,12.0,12.0,67,0.00,,,0.00,WeatherDisplay:10.37,2013-04-01 18:27:00,
2013-04-01 14:32:00,56.8,46.0,29.56,NNE,21,21.9,21.9,67,0.00,,,0.00,WeatherDisplay:10.37,2013-04-01 18:32:00,
2013-04-01 14:37:00,57.3,46.4,29.56,SSE,163,9.2,9.2,67,0.00,,,0.00,WeatherDisplay:10.37,2013-04-01 18:37:00,
2013-04-01 14:42:00,58.4,47.5,29.56,SSW,193,7.0,7.0,67,0.00,,,0.00,WeatherDisplay:10.37,2013-04-01 18:42:00,
2013-04-01 14:47:00,58.2,46.9,29.56,SSW,213,19.6,19.6,66,0.00,,,0.00,WeatherDisplay:10.37,2013-04-01 18:47:00,
2013-04-01 14:52:00,57.5,46.6,29.56,SSW,199,9.2,9.2,67,0.00,,,0.00,WeatherDisplay:10.37,2013-04-01 18:52:00,
2013-04-01 14:57:00,57.8,46.9,29.56,SSW,203,17.3,17.3,67,0.00,,,0.00,WeatherDisplay:10.37,2013-04-01 18:57:00,
2013-04-01 15:03:00,57.9,47.0,29.56,WSW,254,12.0,12.0,67,0.00,,,0.00,WeatherDisplay:10.37,2013-04-01 19:03:00,
2013-04-01 15:08:00,57.6,46.7,29.55,South,178,9.0,9.0,67,0.00,,,0.00,WeatherDisplay:10.37,2013-04-01 19:08:00,
2013-04-01 15:13:00,57.3,46.4,29.55,South,182,17.3,17.3,67,0.00,,,0.00,WeatherDisplay:10.37,2013-04-01 19:13:00,
2013-04-01 15:18:00,57.1,46.6,29.55,SW,229,12.7,12.7,68,0.00,,,0.00,WeatherDisplay:10.37,2013-04-01 19:18:00,
2013-04-01 15:24:00,57.5,47.0,29.55,West,272,14.0,14.0,68,0.00,,,0.00,WeatherDisplay:10.37,2013-04-01 19:24:00,
2013-04-01 15:29:00,57.1,47.0,29.55,ESE,107,10.0,10.0,69,0.00,,,0.00,WeatherDisplay:10.37,2013-04-01 19:29:00,
2013-04-01 15:34:00,56.8,47.1,29.54,South,174,6.9,6.9,70,0.00,,,0.00,WeatherDisplay:10.37,2013-04-01 19:34:00,
2013-04-01 15:39:00,56.6,46.9,29.54,SSW,205,19.6,19.6,70,0.00,,,0.00,WeatherDisplay:10.37,2013-04-01 19:39:00,
2013-04-01 15:44:00,56.4,47.1,29.53,SSW,194,4.6,4.6,71,0.00,,,0.00,WeatherDisplay:10.37,2013-04-01 19:44:00,
2013-04-01 15:49:00,56.7,47.4,29.53,WSW,242,4.6,4.6,71,0.00,,,0.00,WeatherDisplay:10.37,2013-04-01 19:49:00,
2013-04-01 15:54:00,57.0,47.3,29.53,South,169,19.6,19.6,70,0.00,,,0.00,WeatherDisplay:10.37,2013-04-01 19:54:00,
2013-04-01 15:59:00,56.9,47.2,29.53,South,173,6.9,6.9,70,0.00,,,0.00,WeatherDisplay:10.37,2013-04-01 19:59:00,
2013-04-01 16:04:00,57.5,47.8,29.52,West,272,6.9,6.9,70,0.00,,,0.00,WeatherDisplay:10.37,2013-04-01 20:04:00,
2013-04-01 16:09:00,57.7,47.2,29.52,South,190,10.4,10.4,68,0.00,,,0.00,WeatherDisplay:10.37,2013-04-01 20:09:00,
2013-04-01 16:14:00,57.0,46.9,29.53,SSW,206,13.8,13.8,69,0.00,,,0.00,WeatherDisplay:10.37,2013-04-01 20:14:00,
2013-04-01 16:19:00,56.8,47.1,29.53,WSW,237,5.8,5.8,70,0.00,,,0.00,WeatherDisplay:10.37,2013-04-01 20:19:00,
2013-04-01 16:24:00,56.8,46.7,29.52,South,182,16.1,16.1,69,0.00,,,0.00,WeatherDisplay:10.37,2013-04-01 20:24:00,
2013-04-01 16:29:00,56.4,46.7,29.53,SW,234,18.4,18.4,70,0.00,,,0.00,WeatherDisplay:10.37,2013-04-01 20:29:00,
2013-04-01 16:34:00,56.0,46.4,29.53,ESE,115,16.1,16.1,70,0.00,,,0.00,WeatherDisplay:10.37,2013-04-01 20:34:00,
2013-04-01 16:39:00,55.7,46.4,29.53,SSW,200,11.5,11.5,71,0.00,,,0.00,WeatherDisplay:10.37,2013-04-01 20:39:00,
2013-04-01 16:44:00,55.3,46.1,29.53,NW,321,12.7,12.7,71,0.00,,,0.00,WeatherDisplay:10.37,2013-04-01 20:44:00,
2013-04-01 16:49:00,54.8,45.9,29.54,South,189,4.6,4.6,72,0.00,,,0.00,WeatherDisplay:10.37,2013-04-01 20:49:00,
2013-04-01 16:54:00,54.2,45.4,29.54,East,95,5.8,5.8,72,0.00,,,0.00,WeatherDisplay:10.37,2013-04-01 20:54:00,
2013-04-01 16:59:00,53.8,45.3,29.55,SW,232,6.9,6.9,73,0.00,,,0.00,WeatherDisplay:10.37,2013-04-01 20:59:00,
2013-04-01 17:04:00,53.5,45.4,29.58,NW,325,13.0,13.0,74,0.00,,,0.00,WeatherDisplay:10.37,2013-04-01 21:04:00,
2013-04-01 17:09:00,52.3,45.3,29.59,NW,316,5.8,5.8,77,0.00,,,0.00,WeatherDisplay:10.37,2013-04-01 21:09:00,
2013-04-01 17:14:00,50.7,45.1,29.59,NW,319,11.5,11.5,81,0.00,,,0.00,WeatherDisplay:10.37,2013-04-01 21:14:00,
2013-04-01 17:19:00,49.8,45.5,29.60,NNW,328,4.6,4.6,85,0.02,RA,,0.02,WeatherDisplay:10.37,2013-04-01 21:19:00,
2013-04-01 17:24:00,49.0,45.6,29.60,NW,304,3.5,3.5,88,0.03,RA,,0.03,WeatherDisplay:10.37,2013-04-01 21:24:00,
2013-04-01 17:29:00,48.3,45.8,29.60,WSW,237,3.5,3.5,91,0.04,RA,,0.04,WeatherDisplay:10.37,2013-04-01 21:29:00,
2013-04-01 17:34:00,47.9,45.7,29.60,West,279,8.1,8.1,92,0.04,RA,,0.04,WeatherDisplay:10.37,2013-04-01 21:34:00,
2013-04-01 17:39:00,47.7,45.8,29.60,NNW,334,2.3,2.3,93,0.05,RA,,0.05,WeatherDisplay:10.37,2013-04-01 21:39:00,
2013-04-01 17:44:00,47.4,45.5,29.60,WSW,255,5.8,5.8,93,0.05,RA,,0.05,WeatherDisplay:10.37,2013-04-01 21:44:00,
2013-04-01 17:49:00,47.3,45.7,29.60,NNW,335,3.5,3.5,94,0.05,,,0.05,WeatherDisplay:10.37,2013-04-01 21:49:00,
2013-04-01 17:54:00,47.1,45.5,29.60,NW,321,0.0,0.0,94,0.05,,,0.05,WeatherDisplay:10.37,2013-04-01 21:54:00,
2013-04-01 17:59:00,47.0,45.4,29.61,NNE,18,6.9,6.9,94,0.05,,,0.05,WeatherDisplay:10.37,2013-04-01 21:59:00,
2013-04-01 18:04:00,46.9,45.3,29.61,NW,311,3.5,3.5,94,0.05,,,0.05,WeatherDisplay:10.37,2013-04-01 22:04:00,
2013-04-01 18:09:00,46.8,44.9,29.61,NNW,329,3.5,3.5,93,0.05,,,0.05,WeatherDisplay:10.37,2013-04-01 22:09:00,
2013-04-01 18:14:00,46.6,45.0,29.61,WNW,290,16.1,16.1,94,0.05,OVC,,0.05,WeatherDisplay:10.37,2013-04-01 22:14:00,
2013-04-01 18:19:00,46.5,44.6,29.61,NNW,342,1.0,1.0,93,0.03,OVC,,0.05,WeatherDisplay:10.37,2013-04-01 22:19:00,
2013-04-01 18:24:00,46.6,45.0,29.61,NW,306,4.6,4.6,94,0.02,OVC,,0.05,WeatherDisplay:10.37,2013-04-01 22:24:00,
2013-04-01 18:29:00,46.5,44.9,29.62,NW,317,4.6,4.6,94,0.01,OVC,,0.05,WeatherDisplay:10.37,2013-04-01 22:29:00,
2013-04-01 18:35:00,46.0,43.8,29.63,NW,319,4.6,4.6,92,0.01,OVC,,0.05,WeatherDisplay:10.37,2013-04-01 22:35:00,
2013-04-01 18:40:00,45.6,43.1,29.63,NNW,340,3.5,3.5,91,0.00,OVC,,0.05,WeatherDisplay:10.37,2013-04-01 22:40:00,
2013-04-01 18:45:00,45.0,42.0,29.64,WNW,288,5.8,5.8,89,0.00,OVC,,0.05,WeatherDisplay:10.37,2013-04-01 22:45:00,
2013-04-01 18:50:00,44.4,41.1,29.65,NW,319,3.5,3.5,88,0.00,OVC,,0.05,WeatherDisplay:10.37,2013-04-01 22:50:00,
2013-04-01 18:55:00,43.8,40.5,29.65,NNW,336,6.9,6.9,88,0.00,OVC,,0.05,WeatherDisplay:10.37,2013-04-01 22:55:00,
2013-04-01 19:00:00,43.4,40.1,29.65,NNW,342,2.3,2.3,88,0.00,OVC,,0.05,WeatherDisplay:10.37,2013-04-01 23:00:00,
2013-04-01 19:05:00,43.0,40.0,29.66,NNW,336,0.0,0.0,89,0.00,OVC,,0.05,WeatherDisplay:10.37,2013-04-01 23:05:00,
2013-04-01 19:10:00,42.6,39.3,29.65,NNW,338,4.6,4.6,88,0.00,OVC,,0.05,WeatherDisplay:10.37,2013-04-01 23:10:00,
2013-04-01 19:15:00,42.2,38.9,29.66,NW,323,3.5,3.5,88,0.00,OVC,,0.05,WeatherDisplay:10.37,2013-04-01 23:15:00,
2013-04-01 19:20:00,41.9,38.6,29.66,West,277,5.0,5.0,88,0.00,OVC,,0.05,WeatherDisplay:10.37,2013-04-01 23:20:00,
2013-04-01 19:25:00,41.6,37.1,29.67,NW,319,6.9,6.9,84,0.00,OVC,,0.05,WeatherDisplay:10.37,2013-04-01 23:25:00,
2013-04-01 19:30:00,41.5,36.4,29.67,NW,314,4.6,4.6,82,0.00,OVC,,0.05,WeatherDisplay:10.37,2013-04-01 23:30:00,
2013-04-01 19:35:00,41.3,35.9,29.67,NNE,18,10.4,10.4,81,0.00,OVC,,0.05,WeatherDisplay:10.37,2013-04-01 23:35:00,
2013-04-01 19:40:00,41.2,35.8,29.68,NNW,343,3.5,3.5,81,0.00,OVC,,0.05,WeatherDisplay:10.37,2013-04-01 23:40:00,
2013-04-01 19:45:00,41.0,35.9,29.68,NNW,328,3.5,3.5,82,0.00,OVC,,0.05,WeatherDisplay:10.37,2013-04-01 23:45:00,
2013-04-01 19:50:00,40.9,35.2,29.68,North,10,4.6,4.6,80,0.00,OVC,,0.05,WeatherDisplay:10.37,2013-04-01 23:50:00,
2013-04-01 19:55:00,40.9,34.6,29.69,NW,315,2.3,2.3,78,0.00,OVC,,0.05,WeatherDisplay:10.37,2013-04-01 23:55:00,
2013-04-01 20:00:00,40.9,34.2,29.69,NW,308,5.0,5.0,77,0.00,OVC,,0.05,WeatherDisplay:10.37,2013-04-02 00:00:00,
2013-04-01 20:05:00,40.8,33.8,29.69,West,268,6.9,6.9,76,0.00,OVC,,0.05,WeatherDisplay:10.37,2013-04-02 00:05:00,
2013-04-01 20:10:00,40.8,34.5,29.69,WNW,299,3.5,3.5,78,0.00,OVC,,0.05,WeatherDisplay:10.37,2013-04-02 00:10:00,
2013-04-01 20:15:00,40.6,34.0,29.69,West,273,3.5,3.5,77,0.00,OVC,,0.05,WeatherDisplay:10.37,2013-04-02 00:15:00,
2013-04-01 20:20:00,40.5,33.2,29.69,NNW,334,9.2,9.2,75,0.00,OVC,,0.05,WeatherDisplay:10.37,2013-04-02 00:20:00,
2013-04-01 20:25:00,40.4,33.4,29.70,North,360,4.6,4.6,76,0.00,OVC,,0.05,WeatherDisplay:10.37,2013-04-02 00:25:00,
2013-04-01 20:30:00,40.5,33.2,29.70,North,355,10.4,10.4,75,0.00,OVC,,0.05,WeatherDisplay:10.37,2013-04-02 00:30:00,
2013-04-01 20:35:00,40.5,33.2,29.71,NW,307,9.2,9.2,75,0.00,OVC,,0.05,WeatherDisplay:10.37,2013-04-02 00:35:00,
2013-04-01 20:40:00,40.4,32.8,29.71,WNW,285,2.3,0.0,74,0.00,OVC,,0.05,WeatherDisplay:10.37,2013-04-02 00:40:00,
2013-04-01 20:45:00,40.3,32.7,29.71,NW,313,0.0,0.0,74,0.00,OVC,,0.05,WeatherDisplay:10.37,2013-04-02 00:45:00,
2013-04-01 20:50:00,40.3,32.3,29.71,NW,319,3.0,3.0,73,0.00,OVC,,0.05,WeatherDisplay:10.37,2013-04-02 00:50:00,
2013-04-01 20:55:00,40.4,31.0,29.71,WNW,285,10.0,10.0,69,0.00,OVC,,0.05,WeatherDisplay:10.37,2013-04-02 00:55:00,
2013-04-01 21:00:00,40.4,30.7,29.71,NNW,330,3.5,3.5,68,0.00,OVC,,0.05,WeatherDisplay:10.37,2013-04-02 01:00:00,
2013-04-01 21:05:00,40.4,29.6,29.71,NNW,330,4.6,0.0,65,0.00,OVC,,0.05,WeatherDisplay:10.37,2013-04-02 01:05:00,
2013-04-01 21:10:00,40.3,28.3,29.71,WNW,298,6.9,6.9,62,0.00,OVC,,0.05,WeatherDisplay:10.37,2013-04-02 01:10:00,
2013-04-01 21:15:00,40.1,28.1,29.71,NNW,346,4.6,4.6,62,0.00,OVC,,0.05,WeatherDisplay:10.37,2013-04-02 01:15:00,
2013-04-01 21:20:00,39.8,27.8,29.72,North,360,2.3,2.3,62,0.00,OVC,,0.05,WeatherDisplay:10.37,2013-04-02 01:20:00,
2013-04-01 21:25:00,39.6,26.8,29.72,West,279,6.9,6.9,60,0.00,OVC,,0.05,WeatherDisplay:10.37,2013-04-02 01:25:00,
2013-04-01 21:30:00,39.3,26.6,29.73,NNW,336,6.9,6.9,60,0.00,OVC,,0.05,WeatherDisplay:10.37,2013-04-02 01:30:00,
2013-04-01 21:35:00,39.1,26.4,29.73,NW,307,3.5,3.5,60,0.00,OVC,,0.05,WeatherDisplay:10.37,2013-04-02 01:35:00,
2013-04-01 21:40:00,38.8,24.9,29.74,WNW,291,5.8,5.8,57,0.00,OVC,,0.05,WeatherDisplay:10.37,2013-04-02 01:40:00,
2013-04-01 21:45:00,38.8,24.0,29.74,NNW,346,13.8,13.8,55,0.00,OVC,,0.05,WeatherDisplay:10.37,2013-04-02 01:45:00,
2013-04-01 21:50:00,38.8,22.2,29.74,NNE,15,13.8,13.8,51,0.00,OVC,,0.05,WeatherDisplay:10.37,2013-04-02 01:50:00,
2013-04-01 21:55:00,38.6,22.0,29.75,NNW,327,1.0,10.0,51,0.00,OVC,,0.05,WeatherDisplay:10.37,2013-04-02 01:55:00,
2013-04-01 22:00:00,38.4,21.4,29.75,NW,313,3.0,13.0,50,0.00,OVC,,0.05,WeatherDisplay:10.37,2013-04-02 02:00:00,
2013-04-01 22:05:00,38.2,22.1,29.75,NNW,329,2.0,6.0,52,0.00,OVC,,0.05,WeatherDisplay:10.37,2013-04-02 02:05:00,
2013-04-01 22:10:00,37.9,21.8,29.75,North,353,0.0,10.0,52,0.00,OVC,,0.05,WeatherDisplay:10.37,2013-04-02 02:10:00,
2013-04-01 22:15:00,37.7,21.6,29.75,NNW,331,1.0,13.0,52,0.00,OVC,,0.05,WeatherDisplay:10.37,2013-04-02 02:15:00,
2013-04-01 22:20:00,37.4,21.8,29.75,NNW,330,0.0,5.0,53,0.00,OVC,,0.05,WeatherDisplay:10.37,2013-04-02 02:20:00,
2013-04-01 22:25:00,37.2,22.5,29.76,NW,323,1.0,7.0,55,0.00,OVC,,0.05,WeatherDisplay:10.37,2013-04-02 02:25:00,
2013-04-01 22:30:00,36.9,21.8,29.76,WNW,301,1.0,5.0,54,0.00,OVC,,0.05,WeatherDisplay:10.37,2013-04-02 02:30:00,
2013-04-01 22:35:00,36.6,21.5,29.77,NW,309,1.0,4.0,54,0.00,OVC,,0.05,WeatherDisplay:10.37,2013-04-02 02:35:00,
2013-04-01 22:40:00,36.4,21.3,29.77,NNW,336,1.0,3.0,54,0.00,OVC,,0.05,WeatherDisplay:10.37,2013-04-02 02:40:00,
2013-04-01 22:45:00,36.3,20.8,29.77,NNW,328,3.0,12.0,53,0.00,OVC,,0.05,WeatherDisplay:10.37,2013-04-02 02:45:00,
2013-04-01 22:50:00,36.3,19.8,29.77,NNW,328,0.0,5.0,51,0.00,OVC,,0.05,WeatherDisplay:10.37,2013-04-02 02:50:00,
2013-04-01 22:55:00,36.1,19.2,29.77,NW,322,2.0,6.0,50,0.00,OVC,,0.05,WeatherDisplay:10.37,2013-04-02 02:55:00,
2013-04-01 23:00:00,36.0,20.1,29.77,NW,323,0.0,7.0,52,0.00,OVC,,0.05,WeatherDisplay:10.37,2013-04-02 03:00:00,
2013-04-01 23:05:00,35.9,18.6,29.77,NNW,329,1.0,12.0,49,0.00,OVC,,0.05,WeatherDisplay:10.37,2013-04-02 03:05:00,
2013-04-01 23:10:00,36.0,19.1,29.77,NNW,336,2.0,6.0,50,0.00,OVC,,0.05,WeatherDisplay:10.37,2013-04-02 03:10:00,
2013-04-01 23:15:00,35.9,18.6,29.78,NNW,339,2.0,12.0,49,0.00,OVC,,0.05,WeatherDisplay:10.37,2013-04-02 03:15:00,
2013-04-01 23:20:00,36.0,18.2,29.78,NNW,327,5.0,13.0,48,0.00,OVC,,0.05,WeatherDisplay:10.37,2013-04-02 03:20:00,
2013-04-01 23:25:00,36.0,18.2,29.78,NNW,338,2.0,12.0,48,0.00,OVC,,0.05,WeatherDisplay:10.37,2013-04-02 03:25:00,
2013-04-01 23:30:00,35.9,18.1,29.78,NNW,329,1.0,12.0,48,0.00,OVC,,0.05,WeatherDisplay:10.37,2013-04-02 03:30:00,
2013-04-01 23:35:00,35.7,17.9,29.78,NNW,327,2.0,10.0,48,0.00,OVC,,0.05,WeatherDisplay:10.37,2013-04-02 03:35:00,
2013-04-01 23:40:00,35.7,17.9,29.79,NW,318,0.0,12.0,48,0.00,OVC,,0.05,WeatherDisplay:10.37,2013-04-02 03:40:00,
2013-04-01 23:45:00,35.5,17.7,29.79,NW,323,2.0,12.0,48,0.00,OVC,,0.05,WeatherDisplay:10.37,2013-04-02 03:45:00,
2013-04-01 23:50:00,35.4,18.1,29.79,NNW,335,0.0,10.0,49,0.00,OVC,,0.05,WeatherDisplay:10.37,2013-04-02 03:50:00,
2013-04-01 23:55:00,35.2,17.4,29.79,NW,321,2.0,9.0,48,0.00,OVC,,0.05,WeatherDisplay:10.37,2013-04-02 03:55:00,